[[{"header":{"parameterUnit":"m.s-1","parameterCategory":1,"la1":30.2991,"la2":30.254,"lo1":-89.0895,"lo2":-89.0444,"dy":0.0017,"dx":0.0017,"nx":28,"ny":28,"refTime":"2025-01-25T03:00:00:Z","depth":0,"parameterNumber":2,"parameterNumberName":"U-component_of_WINDS"},"data":[0,0,0,0,0,0,0,0,0,0,0,0,0,0,0,0,0,0,0,0,0,0,0,0,0,0,0,0,0,0,0,0,0,0,0,0,0,0,0,0,0,0,0,0,0,0,0,0,0,0,0,0,0,0,0,0,0,0,-2.8345,-2.8346,0,-2.8407,-2.8407,-2.8408,-2.8403,-2.8402,-2.8401,-2.84,-2.8462,-2.8465,-2.8467,0,0,0,0,0,0,0,0,0,0,0,0,0,-2.8222,-2.8224,-2.8345,-2.8346,-2.8346,-2.8407,-2.8407,-2.8408,-2.8403,-2.8402,-2.8401,-2.84,-2.8462,-2.8465,-2.8468,0,0,0,0,0,0,0,0,0,0,0,0,0,-2.8279,-2.8225,-2.8345,-2.8351,-2.8352,-2.8406,-2.8407,-2.8408,-2.8403,-2.8402,-2.84,-2.8399,-2.8461,-2.8464,-2.8468,-2.852,0,0,-2.848,-2.8481,0,0,0,0,0,0,0,0,-2.8276,-2.8283,-2.8349,-2.8351,-2.8352,-2.8396,-2.8387,-2.8446,-2.8404,-2.8384,-2.84,-2.8398,-2.8441,-2.8447,-2.8461,-2.8523,-2.8525,-2.848,-2.8482,-2.8484,-2.8485,0,0,0,0,0,0,0,-2.8272,-2.8281,-2.8369,-2.835,-2.8352,-2.8351,-2.8357,-2.8398,-2.842,-2.8385,-2.8385,-2.8393,-2.8442,-2.8458,-2.8463,-2.8526,-2.848,-2.8483,-2.8486,-2.8487,-2.8633,-2.8634,0,0,0,0,0,0,-2.8266,-2.8277,-2.8367,-2.8371,-2.831,-2.8354,-2.8361,-2.8383,-2.8419,-2.8423,-2.8394,-2.8392,-2.8452,-2.8458,-2.8465,-2.8527,-2.8484,-2.8488,-2.849,-2.8631,-2.8633,-2.8635,0,0,0,0,0,0,-2.8264,-2.8274,-2.8365,-2.8324,-2.8336,-2.8358,-2.8382,-2.8385,-2.8401,-2.8426,-2.8429,-2.8406,-2.8451,-2.8459,-2.8506,-2.8529,-2.8489,-2.8493,-2.8629,-2.8632,-2.8634,-2.8652,0,0,0,0,0,0,-2.826,-2.8273,-2.8293,-2.8325,-2.8338,-2.8405,-2.8384,-2.8387,-2.8407,-2.8406,-2.8438,-2.8442,-2.845,-2.85,-2.851,-2.8533,-2.8496,-2.8627,-2.863,-2.8633,-2.8649,-2.8654,-2.8659,0,0,0,0,0,-2.8256,-2.8296,-2.8294,-2.8305,-2.8363,-2.8406,-2.8414,-2.8423,-2.8409,-2.8429,-2.8445,-2.8441,-2.8525,-2.8505,-2.8516,-2.8541,-2.8626,-2.8629,-2.8633,-2.8647,-2.8653,-2.8659,0,0,0,0,0,0,-2.8266,-2.83,-2.8299,-2.835,-2.8376,-2.8405,-2.8431,-2.843,-2.8459,-2.8457,-2.8467,-2.8474,-2.8521,-2.8536,-2.8513,-2.8593,-2.8574,-2.8579,-2.8581,-2.8587,-2.8592,-2.8586,-2.8499,0,0,0,0,0,-2.8274,-2.8307,-2.8335,-2.8378,-2.839,-2.8409,-2.8428,-2.8433,-2.8459,-2.847,-2.8489,-2.8515,-2.8547,-2.8568,-2.8599,-2.8652,-2.8658,-2.8674,-2.8679,-2.8683,-2.8688,-2.8716,-2.8723,-2.8646,-2.8646,-2.8646,0,0,-2.8292,-2.8314,-2.8334,-2.838,-2.84,-2.8433,-2.8417,-2.8453,-2.8478,-2.8475,-2.852,-2.8535,-2.8565,-2.8614,-2.8637,-2.8628,-2.8711,-2.8688,-2.8691,-2.8693,-2.872,-2.8727,-2.8734,-2.8649,-2.8648,-2.8648,0,0,-2.834,-2.8361,-2.8398,-2.8419,-2.845,-2.8462,-2.8471,-2.8501,-2.8511,-2.8557,-2.8556,-2.8585,-2.8641,-2.8661,-2.8679,-2.8736,-2.8733,-2.8746,-2.8771,-2.8799,-2.8805,-2.881,-2.8829,-2.8836,-2.8751,-2.8751,-2.8751,0,-2.8357,-2.8407,-2.8417,-2.8453,-2.8473,-2.8474,-2.8511,-2.8531,-2.8571,-2.8584,-2.8574,-2.8644,-2.8664,-2.8718,-2.8732,-2.8747,-2.8757,-2.8742,-2.8803,-2.8809,-2.8814,-2.8832,-2.8839,-2.8752,-2.8752,-2.8752,-2.8752,0,-2.8426,-2.8461,-2.8488,-2.8526,-2.8549,-2.8586,-2.8602,-2.8624,-2.8628,-2.8641,-2.8687,-2.8711,-2.8747,-2.876,-2.8764,-2.8815,-2.8808,-2.8801,-2.8782,-2.8822,-2.8839,-2.8847,-2.8754,-2.8754,-2.8753,-2.8753,0,0,-2.8481,-2.8525,-2.8535,-2.8552,-2.8587,-2.8613,-2.8651,-2.8686,-2.8704,-2.8732,-2.8763,-2.881,-2.8803,-2.8824,-2.883,-2.8854,-2.8897,-2.8843,-2.8844,-2.8851,-2.8953,-2.8958,-2.8966,-2.8896,-2.8897,-2.8898,-2.895,0,-2.8531,-2.8596,-2.8607,-2.8664,-2.8696,-2.8697,-2.873,-2.8754,-2.8768,-2.8797,-2.8812,-2.8845,-2.8834,-2.8846,-2.887,-2.8886,-2.8917,-2.8883,-2.8923,-2.8925,-2.8914,-2.8975,-2.898,-2.9028,-2.8957,-2.8959,-2.8959,0,-2.8598,-2.8628,-2.8688,-2.8719,-2.8732,-2.8761,-2.8794,-2.8822,-2.885,-2.8858,-2.8882,-2.8885,-2.8923,-2.8904,-2.8956,-2.8933,-2.895,-2.8961,-2.8963,-2.8966,-2.8943,-2.8978,-2.9044,-2.905,-2.8971,-2.897,-2.8969,0,-2.863,-2.8685,-2.8728,-2.8743,-2.878,-2.88,-2.8817,-2.8844,-2.8864,-2.8893,-2.8907,-2.894,-2.8958,-2.8984,-2.8996,-2.8981,-2.9048,-2.9029,-2.9055,-2.9054,-2.9067,-2.9066,-2.9135,-2.9081,-2.9081,-2.9081,-2.9081,0,-2.8684,-2.8721,-2.8743,-2.8769,-2.8811,-2.8823,-2.8863,-2.8879,-2.8903,-2.8932,-2.8936,-2.8963,-2.8979,-2.9008,-2.9019,-2.906,-2.9068,-2.9076,-2.9077,-2.9074,-2.9073,-2.9084,-2.9081,-2.9083,-2.9082,-2.9082,-2.9081,0,-2.8726,-2.8743,-2.879,-2.8821,-2.883,-2.8859,-2.8885,-2.8911,-2.8925,-2.8962,-2.8971,-2.8993,-2.9028,-2.9044,-2.9087,-2.9094,-2.914,-2.9141,-2.9131,-2.9131,-2.9155,-2.9152,-2.9232,-2.9243,-2.9184,-2.9184,-2.9185,0,-2.8759,-2.8787,-2.8821,-2.8841,-2.8858,-2.8891,-2.8912,-2.8926,-2.8947,-2.8982,-2.9003,-2.9039,-2.9067,-2.9123,-2.9143,-2.9176,-2.9176,-2.9202,-2.9181,-2.9177,-2.9175,-2.9172,-2.9175,-2.9205,-2.9206,-2.9206,-2.9207,0,-2.8814,-2.8821,-2.8852,-2.8885,-2.891,-2.8938,-2.8964,-2.898,-2.8998,-2.9022,-2.9059,-2.9081,-2.9125,-2.916,-2.9195,-2.9211,-2.9212,-2.9214,-2.9221,-2.9217,-2.9209,-2.9213,-2.914,-2.9211,-2.9211,-2.921,-2.921,-2.921,-2.8851,-2.8876,-2.8904,-2.8938,-2.896,-2.8985,-2.901,-2.9028,-2.9058,-2.9095,-2.9102,-2.914,-2.9168,-2.9214,-2.9232,-2.9262,-2.9256,-2.9267,-2.9269,-2.9271,-2.9272,-2.9206,-2.9269,-2.9269,-2.9269,-2.9269,-2.9269,0,-2.8906,-2.8924,-2.8955,-2.8992,-2.9019,-2.9019,-2.9048,-2.907,-2.9104,-2.913,-2.9158,-2.92,-2.9234,-2.9256,-2.9291,-2.931,-2.9311,-2.9319,-2.9316,-2.932,-2.9277,-2.9266,-2.9317,-2.9317,-2.9317,-2.9317,-2.9317,-2.9317,-2.8937,-2.8979,-2.8989,-2.9042,-2.906,-2.9098,-2.9115,-2.9138,-2.9158,-2.9204,-2.9233,-2.9248,-2.9272,-2.9309,-2.934,-2.9346,-2.9357,-2.9365,-2.937,-2.9328,-2.9323,-2.9318,-2.9308,-2.9368,-2.9368,-2.9411,-2.9411,-2.9412]},{"header":{"parameterUnit":"m.s-1","parameterCategory":1,"la1":30.2991,"la2":30.254,"lo1":-89.0895,"lo2":-89.0444,"dy":0.0017,"dx":0.0017,"nx":28,"ny":28,"refTime":"2025-01-25T03:00:00:Z","depth":0,"parameterNumber":3,"parameterNumberName":"V-component_of_WINDS"},"data":[0,0,0,0,0,0,0,0,0,0,0,0,0,0,0,0,0,0,0,0,0,0,0,0,0,0,0,0,0,0,0,0,0,0,0,0,0,0,0,0,0,0,0,0,0,0,0,0,0,0,0,0,0,0,0,0,0,0,1.5154,1.5154,0,1.516,1.516,1.516,1.518,1.518,1.518,1.5181,1.5187,1.5187,1.5186,0,0,0,0,0,0,0,0,0,0,0,0,0,1.5162,1.5162,1.5154,1.5154,1.5155,1.516,1.516,1.516,1.5179,1.518,1.518,1.5181,1.5187,1.5187,1.5186,0,0,0,0,0,0,0,0,0,0,0,0,0,1.5162,1.5162,1.5154,1.5165,1.5166,1.516,1.516,1.516,1.5179,1.518,1.5181,1.5181,1.5187,1.5187,1.5186,1.5171,0,0,1.5185,1.5185,0,0,0,0,0,0,0,0,1.5162,1.5162,1.5163,1.5164,1.5165,1.517,1.5165,1.5164,1.5179,1.5174,1.5181,1.5182,1.5181,1.5181,1.5181,1.5171,1.5172,1.5185,1.5185,1.5185,1.5185,0,0,0,0,0,0,0,1.5162,1.5162,1.5157,1.5163,1.5164,1.517,1.517,1.5165,1.5174,1.5175,1.5176,1.5176,1.5181,1.5181,1.5181,1.5172,1.5185,1.5185,1.5185,1.5185,1.5152,1.5152,0,0,0,0,0,0,1.516,1.5162,1.5156,1.5157,1.5165,1.5169,1.517,1.5168,1.5174,1.5175,1.5176,1.5177,1.5181,1.5181,1.5181,1.5165,1.5185,1.5185,1.5184,1.5153,1.5152,1.5152,0,0,0,0,0,0,1.5161,1.516,1.5156,1.516,1.516,1.5168,1.5166,1.5167,1.5167,1.5175,1.5177,1.5174,1.5182,1.5182,1.5174,1.5166,1.5184,1.5184,1.5154,1.5153,1.5152,1.5132,0,0,0,0,0,0,1.5161,1.516,1.5154,1.5159,1.5159,1.5148,1.5165,1.5167,1.5166,1.5168,1.5173,1.5175,1.5182,1.5174,1.5174,1.5165,1.5184,1.5155,1.5153,1.5152,1.5133,1.513,1.5128,0,0,0,0,0,1.5161,1.5147,1.5153,1.5152,1.5152,1.5148,1.5148,1.5157,1.5165,1.516,1.5165,1.5174,1.5166,1.5173,1.5173,1.5164,1.5155,1.5154,1.5152,1.5135,1.5131,1.5128,0,0,0,0,0,0,1.514,1.5148,1.5155,1.5143,1.5144,1.5151,1.5144,1.5152,1.5152,1.5154,1.5165,1.5166,1.5157,1.516,1.5167,1.5151,1.5163,1.5161,1.5149,1.5146,1.5143,1.5143,1.5183,0,0,0,0,0,1.5134,1.513,1.5137,1.5126,1.5127,1.5135,1.5134,1.5141,1.5143,1.5144,1.5148,1.5151,1.5149,1.5147,1.5146,1.5134,1.5136,1.5128,1.5125,1.5123,1.5121,1.5117,1.5114,1.5147,1.5147,1.5147,0,0,1.5122,1.5126,1.5122,1.5122,1.5124,1.512,1.5136,1.513,1.5128,1.5143,1.5136,1.514,1.5143,1.5134,1.513,1.5136,1.5113,1.5121,1.5119,1.5119,1.5115,1.5112,1.5109,1.5146,1.5146,1.5146,0,0,1.5097,1.5099,1.5091,1.5093,1.5096,1.5102,1.51,1.5106,1.5109,1.5103,1.5114,1.5112,1.5108,1.511,1.5111,1.5089,1.5098,1.5088,1.5074,1.5069,1.5067,1.5065,1.5058,1.5056,1.5087,1.5087,1.5087,0,1.5081,1.5076,1.5085,1.508,1.508,1.5094,1.5086,1.5088,1.509,1.5091,1.5097,1.5094,1.5097,1.5089,1.5084,1.5083,1.5082,1.5088,1.5066,1.5064,1.5062,1.5056,1.5054,1.5086,1.5086,1.5086,1.5086,0,1.5057,1.5053,1.5046,1.5049,1.5048,1.5041,1.5051,1.5049,1.5056,1.5062,1.5056,1.506,1.506,1.5059,1.5065,1.5052,1.5056,1.5064,1.5077,1.5058,1.5053,1.505,1.5084,1.5084,1.5085,1.5085,0,0,1.5019,1.5028,1.5026,1.5028,1.5033,1.5031,1.5025,1.5026,1.5025,1.5026,1.5023,1.502,1.5028,1.5029,1.5036,1.5032,1.5016,1.5041,1.5041,1.5037,1.5004,1.4998,1.4995,1.5022,1.5022,1.5021,1.5004,0,1.4997,1.4988,1.4998,1.4987,1.4984,1.4998,1.4994,1.4997,1.5002,1.5001,1.5007,1.5005,1.5015,1.5016,1.5013,1.5019,1.501,1.502,1.502,1.502,1.502,1.4992,1.4986,1.4969,1.5002,1.5001,1.5001,0,1.497,1.4971,1.4961,1.4968,1.4967,1.4963,1.4965,1.4964,1.4968,1.4973,1.4974,1.4983,1.4979,1.4991,1.4986,1.4993,1.4993,1.4997,1.4996,1.4997,1.501,1.4994,1.4964,1.4962,1.4998,1.4998,1.4998,0,1.4946,1.4944,1.4938,1.4939,1.4948,1.4945,1.4948,1.4953,1.4953,1.4955,1.4956,1.4957,1.4958,1.4959,1.4969,1.4976,1.4964,1.4976,1.4968,1.4968,1.4965,1.4966,1.4936,1.4964,1.4964,1.4964,1.4964,0,1.4921,1.4914,1.4928,1.4924,1.4917,1.4928,1.4921,1.4926,1.4931,1.4929,1.4941,1.4939,1.4951,1.495,1.4958,1.4954,1.4954,1.4958,1.496,1.4957,1.4957,1.4958,1.496,1.4963,1.4964,1.4964,1.4964,0,1.4892,1.4901,1.4895,1.4904,1.4906,1.4901,1.4909,1.4906,1.4912,1.491,1.491,1.492,1.4921,1.493,1.4932,1.4937,1.4931,1.4934,1.4929,1.4931,1.4923,1.4924,1.4895,1.4892,1.492,1.492,1.492,0,1.4876,1.4871,1.488,1.4879,1.4882,1.4881,1.4882,1.4893,1.4893,1.4899,1.4896,1.4897,1.4899,1.4899,1.4907,1.4909,1.4914,1.4903,1.4914,1.4912,1.4915,1.4916,1.4916,1.4901,1.4901,1.4901,1.49,0,1.4847,1.4852,1.4852,1.4855,1.4856,1.4858,1.4861,1.486,1.4872,1.4872,1.4873,1.4874,1.4877,1.4879,1.4882,1.4887,1.4896,1.4897,1.4896,1.4893,1.4891,1.4893,1.4924,1.4898,1.4898,1.4898,1.4898,1.4898,1.4825,1.4822,1.4828,1.4829,1.4832,1.4835,1.4834,1.4841,1.4841,1.4845,1.4851,1.4851,1.4857,1.4863,1.4866,1.4867,1.4873,1.487,1.487,1.4869,1.4868,1.489,1.4868,1.4868,1.4868,1.4868,1.4868,0,1.4798,1.4803,1.4803,1.4808,1.4808,1.4817,1.4821,1.4822,1.4822,1.4826,1.4828,1.483,1.4832,1.484,1.4843,1.4842,1.4847,1.4843,1.4843,1.4844,1.4863,1.4864,1.4839,1.4839,1.4839,1.4839,1.4839,1.4839,1.4784,1.478,1.4786,1.4784,1.4789,1.479,1.4792,1.4795,1.4799,1.48,1.4802,1.4807,1.4814,1.4818,1.4821,1.4823,1.4824,1.4819,1.4823,1.484,1.4843,1.4846,1.4847,1.4819,1.4819,1.4805,1.4805,1.4805]}]]